CAPE
1 2 0 2 3 2 3 1 1 1 0 1 0 0 0 0 0 0 0 0 0 1528 1025 360 885 927 1246 468 244 217 51 181 52 16 22 58 49 0 10 1 5 4 0 0 0
2 2 0 1 2 3 2 0 0 1 0 0 0 0 0 0 0 0 0 4 164 1477 425 584 822 1196 289 1 4 6 64 243 133 23 25 31 31 27 5 0 0 6 20 11 4
3 2 0 1 0 3 3 1 0 0 0 0 0 0 0 0 0 0 0 56 2007 886 587 978 34 50 145 180 4 62 98 232 115 276 46 59 23 132 0 0 0 0 0 0 0
8 4 0 0 1 3 3 1 0 0 0 0 0 0 0 0 0 0 753 1182 1859 476 682 274 48 12 53 345 103 104 84 62 107 164 87 1 63 72 0 0 0 0 0 0 1
12 10 0 0 0 1 2 2 1 0 0 0 0 0 0 0 0 443 1810 1054 275 9 0 159 511 290 91 300 166 188 34 246 169 45 11 93 119 15 0 0 0 0 0 0 0
14 10 1 1 0 5 2 3 1 0 0 1 0 0 0 0 0 329 152 287 10 1 0 4 86 642 123 126 34 226 15 121 268 153 20 94 77 0 0 0 0 0 0 0 0
16 10 1 0 0 0 4 2 0 0 1 1 0 0 0 0 0 18 0 397 72 24 0 92 13 330 103 5 36 87 195 11 438 109 67 0 38 0 0 0 0 0 0 0 0
20 11 1 0 1 0 2 0 0 0 0 0 0 0 0 0 0 0 0 455 473 51 175 273 26 155 103 14 90 128 157 73 522 342 3 13 0 0 0 0 0 0 0 0 0
14 7 4 0 0 1 0 0 0 0 0 0 0 0 0 0 0 0 8 483 593 796 753 219 74 176 103 75 13 21 0 51 74 271 17 48 4 0 0 0 0 0 0 0 0
10 5 1 0 2 0 0 0 0 0 0 0 0 0 0 0 0 0 0 676 529 849 579 403 344 101 19 14 10 15 46 118 49 198 82 22 21 0 0 0 0 0 0 0 0
8 1 1 1 0 0 0 0 0 0 0 0 0 0 0 0 0 0 0 457 564 307 745 544 265 114 6 22 59 97 98 62 4 54 204 194 10 0 0 0 11 3 0 0 0
3 1 2 1 0 0 0 0 0 0 0 0 0 0 0 0 0 0 0 53 76 334 49 13 16 79 129 6 94 48 70 50 10 25 50 2 6 30 0 0 0 0 0 0 3
1 1 0 0 0 0 0 0 0 0 0 0 0 0 0 0 0 0 86 85 201 243 267 340 346 51 7 1 19 9 67 133 36 87 33 40 2 4 59 19 0 0 0 0 0
2 0 0 0 0 0 0 0 0 0 0 0 0 0 0 0 0 0 123 283 192 336 238 60 63 115 58 23 0 33 37 245 102 50 78 1 22 90 147 61 0 0 3 8 27
2 1 0 0 0 0 0 0 0 0 0 0 0 0 0 0 0 0 0 107 357 296 57 47 0 64 21 18 0 10 247 227 65 2 12 68 0 0 27 73 97 0 0 19 46
0 0 0 0 0 0 0 0 0 0 0 0 0 0 0 0 0 0 0 35 148 92 0 0 7 11 2 0 17 8 24 60 111 7 11 0 0 6 0 0 66 28 1 5 0
0 0 0 0 0 0 0 0 0 0 0 0 0 0 0 0 0 0 0 31 8 0 0 0 0 4 0 88 65 24 0 0 0 0 32 18 0 44 3 11 63 159 514 159 92
0 0 0 0 0 0 0 0 1 14 8 22 0 0 0 0 0 0 0 40 0 0 0 0 0 0 0 114 41 1 0 0 3 15 27 45 49 79 55 243 337 338 237 308 76
0 0 0 0 0 0 0 0 0 0 4 2 0 0 0 0 0 0 0 0 0 0 0 0 0 0 0 0 0 0 0 0 23 31 111 9 3 6 493 530 558 335 45 133 123
0 0 0 0 0 0 0 0 0 0 30 4 0 0 0 0 0 0 0 0 0 0 0 0 0 0 0 0 0 9 0 18 12 25 6 12 0 0 43 683 510 333 16 0 3
0 2 0 0 0 0 0 0 7 1 36 37 24 7 0 6 0 0 0 0 0 0 0 0 0 0 0 0 0 0 0 0 0 5 24 25 0 27 0 123 548 371 98 1 0
0 0 0 0 0 0 0 0 0 16 24 20 6 0 9 17 78 16 0 0 0 0 0 0 0 0 0 0 0 0 0 0 0 24 0 18 49 193 102 3 493 463 170 0 0
0 0 0 0 0 0 0 2 0 3 11 0 0 0 0 19 43 120 62 59 25 0 0 0 0 0 0 0 0 0 0 0 0 15 80 0 0 0 10 486 357 491 306 80 91
0 0 0 0 0 5 2 0 0 2 1 0 0 0 0 19 1 77 77 116 64 4 415 6 0 0 0 0 0 0 0 0 0 232 275 70 0 217 371 991 614 397 134 23 23
0 0 0 0 5 0 0 0 7 13 8 0 0 21 0 39 45 30 74 61 14 75 0 1 0 1 0 0 0 0 43 0 0 0 673 426 77 619 814 1513 2087 2203 1955 1561 1155
0 0 0 0 0 0 4 0 2 0 0 0 0 0 2 3 5 0 3 21 48 11 4 0 9 79 64 0 9 41 0 2 34 238 697 478 796 495 457 488 1339 1701 1704 1675 1919
0 0 0 0 0 0 0 4 23 40 25 7 7 0 0 13 0 0 0 0 0 0 0 0 0 0 7 0 0 17 0 55 228 278 483 1068 1105 378 619 681 843 921 1000 1074 1155
CIN
0 0 0 0 0 0 0 0 0 0 0 0 0 0 0 0 0 0 0 0 0 -243 -253 -224 -172 -99 -37 -237 -308 -293 -192 -92 -36 -51 -48 -42 -45 0 -155 -57 -108 -153 0 0 0
0 0 0 0 0 0 0 0 0 0 0 0 0 0 0 0 0 0 0 -49 -328 -250 -228 -119 -102 -47 -234 -118 -254 -155 -200 -73 -68 -50 -46 -43 -55 -106 -115 0 0 -285 -235 -190 -51
0 0 0 0 0 0 0 0 0 0 0 0 0 0 0 0 0 0 0 -76 -231 -264 -142 -97 -232 -99 -209 -234 -293 -234 -135 -75 -24 -61 -25 -31 -24 -62 0 0 0 0 0 0 0
-1 0 0 0 0 0 0 0 0 0 0 0 0 0 0 0 0 0 -445 -299 -161 -240 -159 -161 -192 -216 -284 -155 -187 -129 -42 -68 -94 -88 -68 -4 -73 -109 0 0 0 0 0 0 -30
0 -1 0 0 0 0 0 0 0 0 0 0 0 0 0 0 0 -277 -307 -273 -427 -364 0 -298 -249 -222 -184 -157 -198 -45 -123 -67 -70 -74 -133 -73 -96 -65 0 0 0 0 0 0 0
-1 -1 0 0 0 0 0 0 0 0 0 0 0 0 0 0 0 -513 -447 -450 -810 -120 0 -100 -363 -232 -163 -179 -190 -71 -150 -120 -80 -56 -107 -110 -140 0 0 0 0 0 0 0 0
0 0 0 0 0 0 0 0 0 0 0 0 0 0 0 0 0 -804 0 -408 -605 -476 -1 -355 -634 -317 -238 -224 -163 -62 -38 -255 -121 -83 -119 0 -136 0 0 0 0 0 0 0 0
0 -1 0 0 0 0 0 0 0 0 0 0 0 0 0 0 0 0 0 -379 -474 -567 -391 -462 -651 -414 -258 -149 -134 -105 -154 -188 -52 -88 -147 -97 0 0 0 0 0 0 0 0 0
0 0 0 0 0 -1 0 0 0 0 0 0 0 0 0 0 0 0 -182 -140 -390 -391 -337 -473 -530 -380 -256 -137 -195 -159 0 -140 -146 -99 -113 -105 -19 0 0 0 0 0 0 0 0
0 -1 0 0 -1 0 0 0 0 0 0 0 0 0 0 0 0 0 0 -126 -121 -325 -334 -311 -361 -367 -422 -197 -50 -72 -114 -108 -133 -63 -74 -168 -138 0 0 0 0 0 0 0 0
0 0 0 -1 0 0 0 0 0 0 0 0 0 0 0 0 0 0 0 -137 -99 -207 -176 -283 -297 -160 -120 -187 -165 -76 -123 -147 -31 -87 -25 -97 -48 0 0 0 -194 -250 0 0 0
0 0 0 -1 0 0 0 0 0 0 0 0 0 0 0 0 0 0 -102 -217 -160 -79 -263 -67 -253 -133 -216 -328 -203 -202 -171 -153 -43 -207 -74 -151 -181 -99 0 0 0 0 0 0 -308
0 0 0 0 0 0 0 0 0 0 0 0 0 0 0 0 0 0 -189 -160 -88 -119 -105 -110 -55 -201 -225 -96 -110 -188 -242 -238 -123 -139 -243 -206 -188 -232 -125 -18 0 0 0 0 0
0 0 0 0 0 0 0 0 0 0 0 0 0 0 0 0 0 0 -137 -51 -85 -71 -94 -195 -178 -145 -201 -162 0 -110 -224 -203 -214 -240 -173 -148 -130 -181 -175 -129 0 0 -67 -187 -353
0 0 0 0 0 0 0 0 0 0 0 0 0 0 0 0 0 0 0 -127 -53 -66 -190 -171 0 -174 -122 -71 -14 -137 -201 -260 -322 -22 -262 -159 0 0 -282 -186 -170 0 -8 -142 -161
0 0 0 0 0 0 0 0 0 0 0 0 0 0 0 0 0 0 0 -197 -167 -200 -1 0 -226 -232 -43 0 -148 -210 -256 -310 -379 -452 -133 0 0 -42 0 0 -125 -158 -21 -77 -7
0 0 0 0 0 0 0 0 0 0 0 0 0 0 0 0 0 0 0 -144 -181 0 0 0 0 -130 -113 -101 -200 -193 0 0 0 0 -268 -479 0 -202 -173 -197 -186 -211 -222 -339 -305
0 0 0 0 0 0 0 0 -37 -82 -67 -61 0 0 0 0 0 0 0 -129 0 0 0 0 0 0 0 -86 -64 -3 0 0 -191 -198 -310 -411 -244 -144 -305 -239 -301 -319 -223 -224 -332
0 0 0 0 0 0 0 0 0 0 -93 -101 0 0 0 0 0 0 0 0 0 0 0 0 0 0 0 0 0 0 0 0 -418 -468 -363 -270 -264 -465 -241 -336 -352 -326 -358 -310 -325
0 0 0 0 0 0 0 0 0 0 -115 -70 0 0 0 0 0 0 0 0 0 0 0 0 0 0 0 0 0 -31 0 -180 -406 -278 -215 -178 0 0 -177 -309 -336 -351 -314 0 -156
0 -83 0 0 0 0 0 0 -163 -45 -148 -114 -95 -67 0 -78 0 0 0 0 0 0 0 0 0 0 0 0 0 0 0 0 0 -215 -178 -141 0 -113 -40 -313 -290 -327 -414 -53 0
0 0 0 0 0 0 0 0 0 -119 -134 -144 -182 0 -146 -231 -120 -34 0 0 0 0 0 0 0 0 0 0 0 0 0 0 0 -237 -3 -314 -207 -370 -467 -497 -280 -277 -441 0 0
0 0 0 0 0 0 0 -167 0 -275 -163 0 0 0 0 -153 -90 -178 -192 -116 -203 0 0 0 0 0 0 0 0 0 0 0 0 -368 -305 0 0 0 -706 -265 -253 -259 -333 -455 -482
0 0 0 0 0 -110 -145 0 0 -106 -116 0 0 0 0 -233 -65 -176 -182 -189 -247 -62 -512 -220 0 0 0 0 0 0 0 0 0 -154 -267 -338 0 -421 -305 -159 -196 -248 -328 -461 -486
0 0 0 0 -117 0 0 0 -260 -340 -253 -10 0 -128 0 -190 -236 -221 -311 -329 -210 -450 -45 -52 0 -7 0 0 0 -123 -167 0 0 0 -113 -255 -300 -247 -190 -93 -96 -88 -123 -175 -235
0 0 0 0 0 0 -57 0 -46 -2 0 0 0 0 -224 -187 -219 0 -297 -279 -178 -56 -167 0 -27 -143 -89 0 -260 -167 0 -90 -132 -290 -158 -344 -204 -366 -363 -294 -104 -85 -87 -95 -87
0 0 0 0 0 0 0 -92 -101 -154 -113 -67 -60 0 0 -187 0 -45 0 0 0 0 0 0 0 0 -57 -72 -36 -122 0 -257 -262 -282 -276 -123 -151 -505 -317 -195 -194 -185 -168 -186 -214
Wind_Speed
14 13 12 11 10 10 10 9 10 10 10 9 10 11 11 14 15 2 6 10 7 12 1 4 7 10 4 4 6 3 5 4 4 4 4 12 18 10 10 15 2 6 9 13 11
15 14 13 12 11 10 10 9 9 10 10 9 10 10 10 11 3 8 10 9 8 14 4 6 4 0 3 5 4 5 2 4 7 5 7 11 20 15 8 16 13 18 17 15 10
16 15 14 13 12 10 9 10 10 9 9 9 10 11 9 8 2 8 11 11 13 10 6 2 7 2 4 3 4 3 3 7 12 10 5 5 12 5 18 9 19 23 19 14 7
17 15 15 13 13 11 10 9 9 9 9 9 10 11 11 3 3 4 4 16 14 14 17 10 1 5 3 3 1 7 10 9 12 5 5 6 8 10 7 9 16 17 17 13 12
16 14 15 13 13 12 10 9 8 9 9 8 9 10 2 2 9 3 24 24 22 24 21 18 8 4 1 6 6 3 8 10 14 9 15 15 12 12 17 19 17 16 14 13 12
16 15 15 13 12 11 10 8 7 8 8 8 8 10 0 2 2 10 18 19 18 15 16 15 9 0 3 2 8 3 4 9 11 14 15 18 15 10 16 19 17 15 12 12 14
17 15 15 13 12 11 9 8 7 8 7 7 7 4 1 11 6 9 11 15 13 10 8 10 8 7 9 4 5 2 4 14 6 5 2 14 11 15 21 17 15 12 11 11 13
18 15 15 13 11 10 8 7 7 8 7 5 5 2 7 2 6 9 7 18 7 7 6 8 17 5 3 11 3 2 3 1 4 4 3 4 7 15 19 18 13 10 10 12 13
18 15 14 13 11 9 7 7 8 8 6 4 0 1 9 1 9 9 9 11 10 7 7 16 9 4 3 6 3 1 4 4 6 8 1 2 8 13 18 15 12 11 9 13 12
18 15 14 12 9 8 8 5 4 6 3 5 4 2 5 5 6 9 8 9 9 11 7 4 4 1 3 3 4 4 2 1 3 7 5 4 2 17 17 17 16 15 14 14 12
19 17 13 10 9 8 6 1 4 2 0 10 8 5 3 2 4 6 9 7 7 7 7 7 5 9 11 5 9 9 4 5 11 8 2 4 10 15 16 15 15 14 14 13 13
20 17 12 9 7 6 2 2 6 3 8 17 7 9 12 3 5 6 10 7 6 9 10 3 9 9 9 15 11 6 13 6 5 4 3 5 3 5 12 17 18 17 15 17 16
21 17 12 7 3 1 3 10 5 13 2 8 9 7 7 11 9 9 12 7 7 4 5 7 11 6 8 11 8 9 14 16 10 4 9 5 6 4 6 15 17 16 18 15 18
21 17 12 7 2 2 6 9 1 7 5 7 5 9 5 7 4 8 10 9 6 10 7 7 7 9 1 2 7 3 9 25 15 6 4 0 4 5 4 12 14 17 16 15 8
18 16 11 4 2 2 8 7 2 4 5 4 5 4 4 8 4 3 5 4 11 11 5 13 5 3 3 4 6 2 27 23 17 7 7 2 1 8 2 5 10 20 15 14 16
18 11 6 2 2 10 11 13 4 7 5 3 5 5 4 1 3 3 4 5 6 4 2 9 2 6 8 1 7 17 6 7 5 5 5 4 2 6 5 8 4 10 9 9 17
22 9 6 2 6 2 6 5 6 3 5 2 6 3 6 7 4 5 4 5 7 2 5 8 6 6 5 6 6 4 5 5 8 6 4 2 4 9 8 10 6 14 12 6 4
28 6 11 7 3 7 5 7 2 2 5 3 4 3 8 6 7 7 6 7 5 5 3 2 10 3 6 9 9 8 8 8 5 4 5 2 2 7 6 8 15 15 14 8 1
23 1 2 7 10 4 6 5 6 3 8 6 5 5 4 5 7 6 10 15 11 11 10 4 7 4 1 5 9 5 3 8 9 4 3 2 5 9 4 11 7 11 13 11 8
4 4 4 6 12 6 6 6 6 5 7 8 3 4 5 6 5 8 6 8 8 13 9 8 5 3 4 3 1 4 12 6 4 6 3 3 4 7 3 4 5 9 12 14 11
3 5 4 11 3 6 3 7 7 8 2 1 3 2 1 4 6 7 11 10 12 10 9 6 5 10 4 2 2 5 1 6 6 6 7 1 7 9 8 6 11 10 9 12 6
5 4 3 6 4 1 1 4 7 8 9 6 2 3 3 1 3 4 6 4 5 14 10 6 7 4 9 6 7 7 8 6 6 5 3 4 8 3 5 6 7 9 10 11 9
4 5 3 5 2 2 6 6 3 13 12 9 3 2 1 2 3 2 7 3 10 8 11 9 1 3 11 9 6 4 3 3 7 4 5 8 8 2 2 4 11 11 8 9 6
2 5 5 4 1 2 3 3 7 14 7 11 10 6 4 0 1 1 9 4 10 5 9 9 4 8 7 8 4 4 5 3 4 4 8 7 6 5 2 7 8 8 10 9 7
2 4 1 5 5 5 1 7 13 13 7 8 11 4 3 1 4 2 1 5 4 5 0 4 6 3 3 6 1 2 4 3 7 8 7 10 12 8 9 10 10 9 10 11 8
4 4 6 5 7 6 2 3 4 1 7 24 14 24 3 5 8 7 5 4 2 7 5 7 2 1 2 6 5 2 8 13 4 9 9 9 5 5 3 4 8 9 8 9 9
5 5 1 6 5 4 2 2 5 7 11 18 28 5 6 7 9 9 7 1 5 5 6 4 4 4 4 7 5 7 8 8 6 5 16 12 9 7 5 11 15 12 13 10 10
Wind_Direction
343 335 328 320 312 311 310 307 310 315 321 331 335 331 330 328 314 160 243 225 164 184 51 121 219 245 331 22 7 64 32 325 294 130 164 112 111 99 92 129 38 196 136 140 137
344 336 327 320 315 310 307 308 307 314 321 331 330 328 330 336 314 251 226 233 163 153 184 193 264 35 39 25 39 62 50 286 279 143 151 131 130 131 105 95 96 97 104 127 137
343 335 328 319 314 308 308 307 306 311 319 328 327 326 324 317 318 251 200 199 131 141 18 73 58 35 57 61 341 76 277 300 347 37 133 122 119 95 120 125 150 143 143 142 142
340 333 328 321 313 310 309 309 309 311 319 326 326 324 320 255 39 339 133 98 87 56 50 42 14 87 97 27 92 332 331 284 300 318 95 98 107 121 118 147 147 137 138 146 165
336 330 328 321 314 311 308 305 303 308 316 323 327 328 324 45 253 106 87 94 94 76 69 35 6 50 106 101 360 130 338 342 338 82 98 95 94 99 114 130 135 138 147 163 181
336 330 328 323 317 313 308 300 299 302 313 321 327 324 345 315 182 131 106 106 116 112 94 118 250 43 25 32 118 266 133 312 322 325 97 110 122 109 129 136 141 151 163 178 194
336 330 330 326 318 314 314 310 303 303 310 317 325 300 83 232 120 112 119 132 135 124 134 148 116 80 18 302 168 284 80 337 321 313 35 88 91 121 140 142 150 171 177 193 212
339 334 333 329 325 315 310 310 306 297 298 295 312 287 241 217 146 137 168 135 160 150 81 73 103 102 177 321 81 130 75 295 295 317 346 58 159 143 150 149 164 185 193 199 218
342 341 337 333 328 314 311 300 292 280 271 272 73 310 266 5 152 188 162 171 145 45 32 100 114 135 122 223 59 164 110 226 330 331 305 13 145 168 158 163 169 185 202 206 230
346 345 340 335 326 321 309 283 292 319 226 210 247 355 271 196 168 174 201 187 139 117 61 59 41 118 254 148 153 323 204 68 48 331 347 356 202 168 168 173 175 191 202 213 219
349 347 341 334 330 330 343 65 28 359 291 198 192 229 271 235 81 194 181 199 170 145 138 209 190 208 214 165 144 171 159 11 343 312 344 316 139 174 183 191 188 194 201 211 221
347 346 336 325 329 339 344 185 204 188 295 225 223 260 278 21 326 231 142 168 181 219 114 108 237 228 198 182 183 157 116 67 304 295 208 53 9 300 207 204 202 191 207 208 220
346 344 336 314 350 334 206 237 100 34 236 277 190 209 227 142 208 235 145 191 205 229 205 188 251 169 206 174 172 179 181 162 186 165 29 92 321 258 279 217 215 202 206 208 205
343 341 334 309 321 285 251 281 302 170 40 277 183 260 192 183 213 208 181 156 222 218 250 222 262 194 167 329 151 294 154 160 167 136 170 343 281 271 210 223 209 209 200 202 212
330 338 324 243 321 217 241 321 276 71 7 245 188 242 108 141 171 241 171 97 217 239 81 265 300 134 245 228 115 231 154 165 155 132 127 334 354 278 76 247 210 202 202 201 202
329 318 313 178 217 243 302 301 59 48 269 285 153 199 118 4 246 271 152 172 221 239 198 253 232 164 181 12 134 157 144 135 149 149 61 262 110 287 199 227 188 205 206 222 200
323 291 215 249 222 325 287 42 40 135 314 230 201 172 169 213 246 184 176 160 185 71 298 307 251 165 119 79 98 167 37 19 4 19 221 226 71 238 221 247 183 147 124 54 34
323 286 218 235 353 16 19 43 17 287 274 297 197 116 175 176 232 210 151 198 276 148 116 169 318 181 179 176 191 197 156 143 139 309 272 329 257 272 327 320 144 155 177 137 36
320 135 240 247 190 92 65 72 220 277 304 275 94 134 258 246 194 133 201 198 196 188 156 181 260 311 333 178 140 184 99 133 102 354 360 339 300 307 12 57 105 173 172 181 180
333 324 253 119 146 90 77 230 242 221 327 21 110 157 210 237 173 148 196 209 217 203 152 225 276 271 250 48 67 150 157 101 33 138 223 291 273 233 316 115 157 169 200 207 197
340 9 289 136 92 60 162 237 272 263 102 177 261 31 50 107 228 215 213 239 202 213 175 135 130 281 18 69 185 352 204 68 116 147 147 167 263 204 219 205 187 194 196 213 203
349 347 288 120 50 47 166 239 311 304 24 227 232 140 132 48 25 322 228 225 314 193 167 176 144 199 231 248 207 182 199 141 140 218 147 118 273 234 173 223 165 188 192 207 214
344 270 292 105 235 296 298 302 275 18 331 324 273 50 195 35 15 89 309 307 333 128 158 189 158 25 344 347 5 126 159 156 142 60 197 141 251 297 306 321 169 161 182 220 230
25 338 319 33 74 126 356 320 350 354 321 3 287 67 68 47 292 254 352 341 332 28 138 103 144 156 193 215 222 351 350 5 111 109 171 213 183 290 262 179 136 145 175 182 198
131 269 22 312 321 349 313 339 57 5 327 351 315 256 176 166 353 360 155 307 326 39 286 106 162 88 252 236 273 357 326 281 201 176 171 184 177 195 176 153 143 135 121 125 152
20 19 342 284 289 333 83 208 98 50 240 286 281 277 176 160 194 220 163 235 242 350 57 348 146 138 285 343 44 187 356 344 162 95 124 153 140 144 182 114 130 134 128 134 145
324 338 97 274 321 336 258 271 219 187 280 245 251 173 205 218 206 223 206 277 127 98 4 46 114 63 276 334 17 20 330 343 69 71 134 164 183 147 173 167 159 150 145 142 129